| time (UTC) | temp F | wind direction | speed knots | gust knots | rain 1hr in | rain 24hr in | rain mn in | humidity % | barometer mb |
| 20260505041404 | 60 | 227 | 0.0 | 1.7 | 0.00 | 0.00 | 0.00 | 30 | 1002.6 |
| 20260505035905 | 61 | 258 | 0.9 | 1.7 | 0.00 | 0.00 | 0.00 | 29 | 1002.8 |
| 20260505034905 | 61 | 231 | 0.0 | 2.6 | 0.00 | 0.00 | 0.00 | 29 | 1003.0 |
| 20260505033906 | 61 | 279 | 0.9 | 4.3 | 0.00 | 0.00 | 0.00 | 28 | 1002.8 |
| 20260505033404 | 61 | 182 | 0.9 | 4.3 | 0.00 | 0.00 | 0.00 | 28 | 1002.8 |
| 20260505032405 | 61 | 172 | 0.0 | 4.3 | 0.00 | 0.00 | 0.00 | 28 | 1002.7 |
| 20260505031904 | 61 | 180 | 0.0 | 4.3 | 0.00 | 0.00 | 0.00 | 27 | 1002.6 |
| 20260505030904 | 61 | 119 | 0.9 | 6.1 | 0.00 | 0.00 | 0.00 | 26 | 1002.3 |
| 20260505030404 | 61 | 119 | 0.9 | 6.1 | 0.00 | 0.00 | 0.00 | 26 | 1002.4 |
| 20260505025905 | 61 | 285 | 1.7 | 6.1 | 0.00 | 0.00 | 0.00 | 25 | 1002.2 |
| 20260505025405 | 61 | 72 | 0.0 | 2.6 | 0.00 | 0.00 | 0.00 | 26 | 1002.1 |
| 20260505024906 | 62 | 64 | 0.0 | 2.6 | 0.00 | 0.00 | 0.00 | 26 | 1002.1 |
| 20260505024405 | 62 | 348 | 0.9 | 6.1 | 0.00 | 0.00 | 0.00 | 26 | 1002.1 |
| 20260505022905 | 62 | 207 | 0.9 | 5.2 | 0.00 | 0.00 | 0.00 | 24 | 1001.9 |
| 20260505022405 | 63 | 295 | 0.0 | 5.2 | 0.00 | 0.00 | 0.00 | 24 | 1001.9 |
| 20260505020904 | 63 | 0 | 0.9 | 4.3 | 0.00 | 0.00 | 0.00 | 23 | 1001.8 |
| 20260505020404 | 64 | 0 | 0.9 | 2.6 | 0.00 | 0.00 | 0.00 | 22 | 1001.8 |
| 20260505015904 | 64 | 0 | 0.9 | 2.6 | 0.00 | 0.00 | 0.00 | 21 | 1001.9 |
| 20260505015405 | 64 | 0 | 0.9 | 2.6 | 0.00 | 0.00 | 0.00 | 21 | 1002.0 |
| 20260505014904 | 64 | 0 | 1.7 | 2.6 | 0.00 | 0.00 | 0.00 | 21 | 1001.9 |
| 20260505013404 | 65 | 0 | 0.9 | 4.3 | 0.00 | 0.00 | 0.00 | 20 | 1001.5 |
| 20260505011905 | 65 | 320 | 2.6 | 7.8 | 0.00 | 0.00 | 0.00 | 20 | 1001.3 |
| 20260505011405 | 66 | 242 | 0.9 | 7.8 | 0.00 | 0.00 | 0.00 | 20 | 1001.3 |
| 20260505010905 | 66 | 195 | 1.7 | 5.2 | 0.00 | 0.00 | 0.00 | 19 | 1001.3 |
| 20260505010404 | 66 | 212 | 1.7 | 7.0 | 0.00 | 0.00 | 0.00 | 19 | 1001.4 |
| 20260505005905 | 66 | 206 | 2.6 | 7.0 | 0.00 | 0.00 | 0.00 | 19 | 1001.3 |
| 20260505005405 | 66 | 242 | 1.7 | 10.4 | 0.00 | 0.00 | 0.00 | 19 | 1001.4 |
| 20260505004904 | 66 | 180 | 2.6 | 10.4 | 0.00 | 0.00 | 0.00 | 19 | 1001.4 |
| 20260505004404 | 67 | 259 | 1.7 | 10.4 | 0.00 | 0.00 | 0.00 | 19 | 1001.5 |
| 20260505002905 | 67 | 221 | 2.6 | 7.8 | 0.00 | 0.00 | 0.00 | 18 | 1001.5 |
| 20260505002404 | 67 | 253 | 1.7 | 6.1 | 0.00 | 0.00 | 0.00 | 19 | 1001.5 |
| 20260505001905 | 67 | 259 | 2.6 | 6.1 | 0.00 | 0.00 | 0.00 | 19 | 1001.4 |
| 20260505001404 | 67 | 305 | 2.6 | 5.2 | 0.00 | 0.00 | 0.00 | 20 | 1001.4 |
| 20260505000904 | 67 | 219 | 0.0 | 6.1 | 0.00 | 0.00 | 0.00 | 20 | 1001.5 |
| 20260505000405 | 67 | 160 | 1.7 | 8.7 | 0.00 | 0.00 | 0.00 | 20 | 1001.6 |
| 20260504235905 | 67 | 223 | 1.7 | 8.7 | 0.00 | 0.00 | 0.00 | 20 | 1001.6 |
| 20260504235405 | 67 | 276 | 2.6 | 6.1 | 0.00 | 0.00 | 0.00 | 20 | 1001.6 |
| 20260504234405 | 67 | 319 | 0.9 | 5.2 | 0.00 | 0.00 | 0.00 | 21 | 1001.8 |
| 20260504233904 | 68 | 203 | 1.7 | 5.2 | 0.00 | 0.00 | 0.00 | 20 | 1001.8 |
| 20260504233405 | 68 | 278 | 0.9 | 5.2 | 0.00 | 0.00 | 0.00 | 20 | 1001.8 |
| 20260504232904 | 68 | 0 | 0.9 | 5.2 | 0.00 | 0.00 | 0.00 | 20 | 1001.7 |
| 20260504230905 | 68 | 252 | 5.2 | 13.0 | 0.00 | 0.00 | 0.00 | 20 | 1001.8 |
| 20260504225904 | 68 | 265 | 1.7 | 5.2 | 0.00 | 0.00 | 0.00 | 20 | 1002.1 |
| 20260504225405 | 67 | 152 | 1.7 | 5.2 | 0.00 | 0.00 | 0.00 | 19 | 1002.1 |
| 20260504224405 | 67 | 247 | 0.9 | 6.1 | 0.00 | 0.00 | 0.00 | 19 | 1002.4 |
| 20260504223405 | 68 | 189 | 3.5 | 7.0 | 0.00 | 0.00 | 0.00 | 19 | 1002.2 |
| 20260504222905 | 67 | 273 | 1.7 | 5.2 | 0.00 | 0.00 | 0.00 | 20 | 1002.3 |
| 20260504220405 | 68 | 238 | 3.5 | 10.4 | 0.00 | 0.00 | 0.00 | 17 | 1002.7 |
| 20260504211904 | 69 | 265 | 3.5 | 8.7 | 0.00 | 0.00 | 0.00 | 15 | 1003.1 |
| 20260504210405 | 69 | 100 | 1.7 | 13.0 | 0.00 | 0.00 | 0.00 | 17 | 1003.2 |
| 20260504205405 | 69 | 243 | 4.3 | 13.0 | 0.00 | 0.00 | 0.00 | 16 | 1003.5 |
| 20260504204904 | 69 | 198 | 4.3 | 10.4 | 0.00 | 0.00 | 0.00 | 16 | 1003.5 |
| 20260504203904 | 68 | 196 | 4.3 | 11.3 | 0.00 | 0.00 | 0.00 | 18 | 1003.7 |
| 20260504200904 | 68 | 257 | 1.7 | 10.4 | 0.00 | 0.00 | 0.00 | 21 | 1003.7 |
| 20260504194904 | 68 | 207 | 4.3 | 10.4 | 0.00 | 0.00 | 0.00 | 21 | 1003.8 |
| 20260504194404 | 69 | 192 | 5.2 | 8.7 | 0.00 | 0.00 | 0.00 | 21 | 1003.9 |
| 20260504193405 | 69 | 231 | 1.7 | 8.7 | 0.00 | 0.00 | 0.00 | 21 | 1004.0 |
| 20260504192904 | 69 | 243 | 2.6 | 8.7 | 0.00 | 0.00 | 0.00 | 22 | 1004.0 |
| 20260504192405 | 68 | 213 | 5.2 | 8.7 | 0.00 | 0.00 | 0.00 | 23 | 1003.9 |
| 20260504190904 | 67 | 184 | 4.3 | 10.4 | 0.00 | 0.00 | 0.00 | 24 | 1004.1 |
| 20260504190404 | 67 | 179 | 5.2 | 10.4 | 0.00 | 0.00 | 0.00 | 23 | 1004.2 |
| 20260504185904 | 67 | 195 | 2.6 | 11.3 | 0.00 | 0.00 | 0.00 | 23 | 1004.3 |
| 20260504185406 | 67 | 244 | 4.3 | 11.3 | 0.00 | 0.00 | 0.00 | 23 | 1004.3 |
| 20260504184905 | 67 | 216 | 4.3 | 10.4 | 0.00 | 0.00 | 0.00 | 24 | 1004.2 |
| 20260504184404 | 67 | 205 | 3.5 | 10.4 | 0.00 | 0.00 | 0.00 | 24 | 1004.4 |
| 20260504183904 | 67 | 218 | 2.6 | 7.0 | 0.00 | 0.00 | 0.00 | 25 | 1004.2 |
| 20260504183405 | 67 | 272 | 2.6 | 7.0 | 0.00 | 0.00 | 0.00 | 24 | 1004.4 |
| 20260504180905 | 66 | 176 | 3.5 | 10.4 | 0.00 | 0.00 | 0.00 | 27 | 1004.7 |
| 20260504175904 | 66 | 151 | 1.7 | 6.1 | 0.00 | 0.00 | 0.00 | 28 | 1004.9 |
| 20260504173904 | 65 | 234 | 2.6 | 7.0 | 0.00 | 0.00 | 0.00 | 30 | 1005.1 |
| 20260504172905 | 66 | 194 | 2.6 | 7.8 | 0.00 | 0.00 | 0.00 | 31 | 1005.1 |
| 20260504172405 | 66 | 218 | 1.7 | 7.8 | 0.00 | 0.00 | 0.00 | 32 | 1005.2 |
| 20260504171904 | 66 | 225 | 1.7 | 4.3 | 0.00 | 0.00 | 0.00 | 30 | 1005.2 |
| 20260504171405 | 65 | 326 | 1.7 | 7.0 | 0.00 | 0.00 | 0.00 | 32 | 1005.1 |
| 20260504150905 | 57 | 154 | 2.6 | 4.3 | 0.00 | 0.00 | 0.00 | 59 | 1006.7 |
| 20260504150404 | 56 | 0 | 1.7 | 5.2 | 0.00 | 0.00 | 0.00 | 59 | 1006.7 |
| 20260504130404 | 50 | 153 | 0.0 | 2.6 | 0.00 | 0.00 | 0.00 | 69 | 1006.9 |
| 20260504110405 | 49 | 150 | 0.9 | 2.6 | 0.00 | 0.00 | 0.00 | 70 | 1006.2 |
| 20260504100404 | 50 | 83 | 0.9 | 2.6 | 0.00 | 0.00 | 0.00 | 73 | 1006.2 |
| 20260504081905 | 51 | 192 | 0.0 | 0.0 | 0.00 | 0.00 | 0.00 | 67 | 1007.5 |
| 20260504081404 | 51 | 192 | 0.0 | 0.0 | 0.00 | 0.00 | 0.00 | 66 | 1007.6 |
| 20260504070404 | 51 | 149 | 1.7 | 2.6 | 0.00 | 0.00 | 0.00 | 60 | 1008.4 |
| 20260504045404 | 53 | 150 | 0.9 | 2.6 | 0.00 | 0.00 | 0.00 | 54 | 1008.8 |
| 20260504044404 | 53 | 11 | 0.9 | 2.6 | 0.00 | 0.00 | 0.00 | 50 | 1008.8 |
| 20260504043405 | 53 | 145 | 0.0 | 2.6 | 0.00 | 0.00 | 0.00 | 49 | 1008.8 |
| 20260504042404 | 54 | 131 | 0.9 | 4.3 | 0.00 | 0.00 | 0.00 | 48 | 1008.6 |